Location: Amsterdam
(30.7274°N, 84.4357°W)
Time: 00:12:07
(UTC+00:00)

Explorer 11/Cluster Stage 4 - Pass Details

Date: 21 February 2026
Orbit: 463 x 1176 km, 28.8° (Epoch: 9 March)

Event Time Altitude Azimuth Distance (km) Brightness Sun altitude
Rises 15:04:18 0° 220° (SW) 3,614 10.0 32.6°
Reaches altitude 10° 15:07:47 10° 205° (SSW) 2,528 9.5 33.2°
Maximum altitude 15:12:08 21° 158° (SSE) 1,706 9.6 33.9°
Drops below altitude 10° 15:15:56 10° 110° (ESE) 2,162 10.0 34.5°
Sets 15:18:38 0° 94° (E) 2,951 10.2 34.9°
